Weather Service Report


393 
ASUS42 KFFC 231103
RWRGA 
WEATHER ROUNDUP FOR GEORGIA
NATIONAL WEATHER SERVICE PEACHTREE CITY GA
700 AM EDT SAT AUG 23 2014

NOTE: "FAIR" INDICATES FEW OR NO CLOUDS BELOW 12,000 FEET WITH NO
SIGNIFICANT WEATHER AND/OR OBSTRUCTIONS TO VISIBILITY. 

* = USE WITH CAUTION. THE STATIONS MARKED WITH AN ASTERISK MAY NOT
REPORT WEATHER SUCH AS PRECIPITATION, FOG, OR THUNDER AND ARE NOT 
QUALITY CONTROLLED BY NWS.

THE REMARK "TC" DENOTES TEMPERATURE READING IN DEGREES CELSIUS.

GAZ001>058-231200-
NORTH GEORGIA
  
CITY           SKY/WX    TMP DP  RH WIND       PRES   REMARKS
ATLANTA        PTCLDY    76  69  79 NW6       30.01R                  
ATHENS         CLEAR     72  69  90 NW3       29.98S                  
CHAMBLEE       CLEAR     72  69  90 S3        30.02R                  
PEACHTREE CITY CLEAR     70  69  97 CALM      30.03R                  
ROME           CLEAR     70  70 100 CALM      30.01R                  
WEST ATLANTA   CLEAR     72  69  90 CALM      30.01R                  
GAINESVILLE    CLEAR     75  69  81 W6        30.03R                  
CARTERSVILLE   CLEAR     69  68  96 CALM      30.03R                  

  
CITY           SKY/WX    TMP DP  RH WIND       PRES   REMARKS
DALTON*        PTCLDY    70  70 100 CALM      30.02R                  
LAWRENCEVILLE* CLEAR     73  66  78 NW5       30.00                   
MARIETTA       MOCLDY    73  71  93 W6        30.02R                  
KENNESAW*      CLEAR    N/A N/A N/A CALM      30.03                   
$$

GAZ059>098-102>109-231200-
CENTRAL GEORGIA
  
CITY           SKY/WX    TMP DP  RH WIND       PRES   REMARKS
AUGUSTA-BUSH   CLEAR     75  70  84 CALM      29.93R                  
AUGUSTA-DANIEL CLEAR     79  70  74 NW8       29.95R                  
COLUMBUS       CLEAR     77  74  90 CALM      29.99R                  
MACON          CLEAR     73  73 100 CALM      29.98R                  
ROBINS AFB     CLEAR     74  72  93 N3        29.98R                  

  
CITY           SKY/WX    TMP DP  RH WIND       PRES   REMARKS
LAGRANGE*        N/A     75  74  98 CALM      30.01S FOG              
SYLVANIA*      CLEAR     74  73  99 CALM      29.94S                  
$$

GAZ099>101-110>166-231200-
SOUTH GEORGIA
  
CITY           SKY/WX    TMP DP  RH WIND       PRES   REMARKS
SAVANNAH       PTCLDY    78  72  81 CALM      29.93S                  
VALDOSTA       CLEAR     74  72  93 CALM      29.97S FOG              
ALMA           PTCLDY    74  72  93 CALM      29.95S                  
ST SIMONS      CLEAR     79  74  84 W6        29.94R                  
FT STEWART     CLEAR     76  73  91 W2        29.92S                  
ALBANY         CLEAR     75  74  96 CALM      30.00R                  
HUNTER AFB     CLEAR     77  74  89 W2        29.91S                  
MOODY AFB      CLEAR     77  73  87 NW1       29.97R                  
BRUNSWICK      CLEAR     79  72  78 W5        29.95S                  

  
CITY           SKY/WX    TMP DP  RH WIND       PRES   REMARKS
BAINBRIDGE*    CLEAR     79  77  94 CALM      29.99R FOG              
MOULTRIE*      CLEAR     77  75  94 CALM      29.99R                  
VIDALIA*         N/A     77  72  83 CALM      29.96R                  
WAYCROSS*      CLEAR     78  75  91 CALM      29.96R                  
DOUGLAS*       CLEAR     77  73  88 CALM      29.98S                  
$$

Return to Home page


Western Regional Climate Center, wrcc@dri.edu